Hourly Weather Roundup
Issued by NWS Central Illinois

Home | Current Version | Previous Version | Text Only | Print | Product List | Glossary On
Versions: 1 2 3 4 5 6 7 8 9 10 11 12 13 14 15 16 17 18 19 20 21 22 23 24 25 26 27 28 29 30 31 32 33 34 35 36 37 38 39 40 41 42 43 44 45 46 47 48 49 50
000
NZUS43 KILX 052110
HWRILX

AREA WEATHER ROUNDUP
NATIONAL WEATHER SERVICE, LINCOLN IL
300 PM CST FRI FEB 05 2016


CITY           SKY/WX    TMP DP  RH WIND       PRES   REMARKS
BLOOMINGTON    CLOUDY    32  23  69 NW3       30.37S
CHAMPAIGN      CLOUDY    32  23  69 W7        30.37S WCI  26
DANVILLE       CLOUDY    30  23  75 NW6       30.35R WCI  24
DECATUR        MOSUNNY   34  21  59 NW6       30.38S WCI  29
EFFINGHAM      CLOUDY    37  27  67 CALM      30.40R
FLORA          MOSUNNY   39  26  58 N7        30.39R WCI  34
GALESBURG      CLOUDY    30  21  68 CALM      30.37S
JACKSONVILLE   CLOUDY    37  22  56 W6        30.39R WCI  32
LACON          CLOUDY    31  21  65 CALM      30.37F
LAWRENCEVILLE  MOSUNNY   40  24  53 W8        30.38S WCI  34
LITCHFIELD     SUNNY     36  21  53 NW7       30.38R WCI  31
$$


CITY           SKY/WX    TMP DP  RH WIND       PRES   REMARKS
LINCOLN        PTSUNNY   33  25  71 NW3       30.39R
MACOMB         PTSUNNY   31  21  67 CALM      30.40S
MATTOON        MOSUNNY   32  23  69 N5        30.37S WCI  27
MT CARMEL AP   MOSUNNY   41  25  52 W8        30.37S
OLNEY-NOBLE AP CLOUDY    37  27  65 W7        30.38S WCI  32
PARIS          PTSUNNY   31  25  77 W9        30.39R WCI  23
PEORIA         MOSUNNY   31  20  63 NW7       30.39R WCI  24
PONTIAC        CLOUDY    30  25  80 NW7       30.39R WCI  24
RANTOUL        CLOUDY    32  25  74 NW9       30.37S WCI  24
ROBINSON       CLOUDY    37  23  58 NW7       30.39S WCI  31
SPRINGFIELD    MOSUNNY   37  24  59 W7        30.39R WCI  32
TAYLORVILLE    MOSUNNY   34  23  64 W6        30.39R WCI  29
$$

...REGIONAL REPORTS...


CITY           SKY/WX    TMP DP  RH WIND       PRES   REMARKS
CHICAGO O`HARE PTSUNNY   33  16  49 W8        30.33R WCI  26
KANKAKEE       CLOUDY    30  23  75 W7        30.38R WCI  23
MOLINE         CLOUDY    32  19  58 CALM      30.36F
MOUNT STERLING CLOUDY    32  21  64 NW3       30.36F
MOUNT VERNON   MOSUNNY   39  21  48 NW5       30.38F
PITTSFIELD     MOSUNNY   35  14  42 NW6       30.38F WCI  30
QUINCY         MOSUNNY   32  19  58 NW6       30.38S WCI  26
ROCKFORD       CLOUDY    31  19  61 W7        30.37R WCI  24
$$


CITY           SKY/WX    TMP DP  RH WIND       PRES   REMARKS
BURLINGTON     CLOUDY    31  21  66 CALM      30.37S
CEDAR RAPIDS   PTSUNNY   28  20  71 S6        30.33F WCI  22
DES MOINES     CLOUDY    31  18  58 S10       30.31F WCI  22
KIRKSVILLE     CLOUDY    34  15  46 S5        30.35S WCI  30
OTTUMWA        CLOUDY    29  18  63 S3        30.34F
ST LOUIS       PTSUNNY   39  13  34 N5        30.38F
$$


CITY           SKY/WX    TMP DP  RH WIND       PRES   REMARKS
TERRE HAUTE    CLOUDY    34  23  64 VRB6      30.38R WCI  29
EVANSVILLE     SUNNY     48  22  35 W12       30.37F
INDIANAPOLIS   CLOUDY    39  22  50 W10       30.32R WCI  32
LAFAYETTE      CLOUDY    31  22  69 W8        30.36R WCI  23
MADISON        CLOUDY    29  15  56 CALM      30.33R
MILWAUKEE      PTSUNNY   31  14  49 W8        30.32S WCI  23
$$





USA.gov is the U.S. government's official web portal to all federal, state and local government web resources and services.